Simultaneous Nadir Overpasses (SNOs) Predictions

Prediction of SNOs between AQUA and NPP Satellite Orbit:

Table of predicted SNOs for the next 14.0 days since TLE Epoch: 10/4/2019
Index Date (AQUA) Time (AQUA) Lat,Lon (AQUA) SZA (AQUA ) Date (NPP) Time (NPP) Lat,Lon (NPP) SZA (NPP ) Distance(km) Time Diff (sec)
1 10/05/2019 13:21:14 57.31,-163.54 119.07 10/05/2019 13:20:02 57.49,-164.84 119.56 80.37 72
2 10/05/2019 14:05:10 -75.80, 27.09 78.54 10/05/2019 14:05:06 -75.80, 27.08 78.54 0.16 4
3 10/05/2019 14:54:15 76.78,-162.11 100.39 10/05/2019 14:55:29 76.76,-162.19 100.35 2.93 74
4 10/08/2019 05:32:23 75.22, -26.33 103.04 10/08/2019 05:31:27 75.23, -26.25 103.07 2.50 56
5 10/08/2019 06:21:34 -76.07, 143.76 77.87 10/08/2019 06:21:55 -76.06, 143.72 77.88 1.28 21
6 10/10/2019 21:48:44 75.63, 90.69 103.55 10/10/2019 21:48:13 75.63, 90.76 103.56 2.06 31
7 10/10/2019 22:37:57 -76.37, -99.39 77.25 10/10/2019 22:38:43 -76.36, -99.46 77.28 1.96 46
8 10/13/2019 14:05:05 75.97,-152.40 104.12 10/13/2019 14:04:59 75.98,-152.33 104.11 2.02 6
9 10/13/2019 14:54:19 -76.66, 17.48 76.63 10/13/2019 14:55:30 -76.66, 17.40 76.68 2.19 71
10 10/16/2019 05:32:33 -74.79, 152.55 73.71 10/16/2019 05:31:35 -74.79, 152.48 73.64 2.21 58
11 10/16/2019 06:21:26 76.36, -35.29 104.63 10/16/2019 06:21:45 76.37, -35.20 104.59 2.37 19




NCC Satellite Simultaneous Nadir Overpasses (SNOs) Prediction Service
